Temp
-13 -13 -14 -14 -14 -14 -14 -14 -14 -14 -14 -14 -14 -14 -14 -14 -15 -15 -15 -15 -15 -15 -15 -15 -15 -15 -16 -16 -16 -16 -16 -15 -15 -15 -15 -15 -15 -15 -15 -15 -15 -15
-14 -14 -14 -14 -14 -14 -14 -14 -14 -14 -14 -14 -14 -14 -14 -15 -15 -15 -15 -15 -15 -15 -15 -16 -16 -16 -16 -16 -16 -16 -16 -16 -15 -15 -15 -15 -15 -15 -15 -15 -15 -15
-14 -14 -14 -14 -14 -14 -14 -14 -14 -14 -14 -14 -14 -15 -15 -15 -15 -15 -15 -15 -15 -16 -16 -16 -16 -16 -16 -16 -16 -16 -16 -16 -16 -15 -15 -15 -15 -15 -15 -15 -15 -15
-14 -14 -14 -14 -14 -14 -14 -14 -14 -14 -14 -14 -15 -15 -15 -15 -15 -15 -15 -15 -16 -16 -16 -16 -16 -16 -16 -16 -16 -16 -16 -16 -16 -16 -16 -15 -15 -15 -15 -15 -15 -15
-14 -14 -14 -14 -14 -14 -14 -14 -14 -14 -14 -15 -15 -15 -15 -15 -15 -15 -15 -16 -16 -16 -16 -16 -16 -16 -16 -16 -16 -16 -16 -16 -16 -16 -16 -16 -16 -16 -16 -15 -16 -16
-14 -14 -14 -14 -14 -14 -14 -14 -14 -14 -14 -15 -15 -15 -15 -15 -15 -16 -16 -16 -16 -16 -16 -16 -16 -16 -16 -16 -16 -16 -16 -16 -16 -16 -16 -16 -16 -16 -16 -16 -16 -16
-14 -14 -14 -14 -14 -14 -14 -14 -14 -14 -15 -15 -15 -15 -15 -16 -16 -16 -16 -16 -16 -16 -16 -16 -17 -17 -17 -16 -16 -16 -16 -16 -16 -16 -16 -16 -16 -16 -16 -16 -16 -16
-14 -14 -14 -14 -14 -14 -14 -14 -14 -15 -15 -15 -15 -16 -16 -16 -16 -16 -16 -16 -16 -17 -17 -17 -17 -17 -17 -17 -16 -16 -16 -16 -16 -16 -16 -16 -16 -16 -16 -16 -16 -16
-14 -14 -14 -14 -14 -14 -14 -15 -15 -15 -15 -15 -16 -16 -16 -16 -16 -16 -16 -17 -17 -17 -17 -17 -17 -17 -17 -17 -17 -17 -17 -17 -17 -17 -17 -17 -17 -17 -17 -17 -17 -17
-15 -14 -14 -15 -15 -15 -15 -15 -15 -15 -16 -16 -16 -16 -16 -16 -16 -16 -17 -17 -17 -17 -17 -17 -17 -17 -17 -17 -17 -17 -17 -17 -17 -17 -17 -17 -17 -17 -17 -17 -17 -17
-15 -15 -15 -15 -15 -15 -15 -15 -15 -16 -16 -16 -16 -16 -16 -16 -17 -17 -17 -17 -17 -17 -17 -17 -17 -17 -17 -17 -17 -17 -17 -17 -17 -17 -17 -17 -17 -17 -17 -17 -17 -17
-15 -15 -15 -15 -15 -15 -15 -16 -16 -16 -16 -16 -16 -16 -17 -17 -17 -17 -17 -17 -17 -17 -17 -17 -17 -17 -17 -17 -17 -17 -17 -17 -17 -17 -17 -17 -18 -18 -18 -18 -17 -17
-15 -15 -16 -16 -16 -16 -16 -16 -16 -16 -16 -16 -17 -17 -17 -17 -17 -17 -17 -17 -17 -17 -17 -17 -17 -17 -17 -17 -18 -18 -18 -18 -18 -18 -18 -18 -18 -18 -18 -18 -18 -18
-16 -16 -16 -16 -16 -16 -16 -16 -16 -16 -16 -17 -17 -17 -17 -17 -17 -17 -17 -17 -17 -17 -17 -17 -17 -18 -18 -18 -18 -18 -18 -18 -18 -18 -18 -18 -18 -18 -18 -18 -18 -18
-16 -16 -16 -16 -16 -16 -16 -16 -16 -17 -17 -17 -17 -17 -17 -17 -18 -17 -18 -18 -18 -18 -18 -18 -18 -18 -18 -18 -18 -18 -18 -18 -18 -19 -18 -18 -18 -18 -19 -19 -19 -19
-16 -16 -16 -16 -16 -16 -16 -17 -17 -17 -17 -17 -17 -18 -18 -18 -18 -18 -18 -18 -18 -18 -18 -18 -18 -18 -18 -18 -18 -18 -19 -19 -19 -19 -19 -19 -19 -19 -19 -19 -19 -19
-16 -16 -17 -17 -17 -17 -17 -17 -17 -17 -17 -18 -18 -18 -18 -18 -18 -18 -18 -18 -18 -18 -18 -18 -18 -18 -18 -18 -19 -19 -19 -19 -19 -19 -19 -19 -19 -19 -19 -19 -19 -19
-17 -17 -17 -17 -17 -17 -17 -17 -17 -17 -18 -18 -18 -18 -18 -18 -18 -18 -18 -18 -18 -18 -18 -18 -18 -18 -19 -19 -19 -19 -19 -19 -19 -19 -19 -19 -19 -20 -20 -20 -19 -19
-17 -17 -17 -17 -17 -17 -17 -17 -17 -18 -18 -18 -18 -18 -18 -18 -18 -18 -18 -18 -18 -18 -18 -18 -18 -19 -19 -19 -19 -19 -19 -19 -19 -19 -20 -20 -20 -20 -20 -20 -20 -20
-17 -17 -17 -17 -17 -17 -17 -17 -18 -18 -18 -18 -18 -18 -18 -18 -18 -18 -18 -18 -18 -18 -18 -19 -19 -19 -19 -19 -19 -19 -19 -19 -20 -20 -20 -20 -20 -20 -20 -20 -20 -20
-17 -17 -17 -17 -17 -17 -18 -18 -18 -18 -18 -18 -18 -18 -18 -18 -18 -18 -18 -18 -19 -19 -19 -19 -19 -19 -19 -19 -19 -20 -20 -20 -20 -20 -20 -20 -20 -20 -20 -20 -20 -20
-17 -17 -17 -17 -17 -18 -18 -18 -18 -18 -18 -18 -18 -18 -18 -18 -18 -18 -19 -19 -19 -19 -19 -19 -19 -19 -19 -20 -20 -20 -20 -20 -20 -20 -20 -20 -20 -20 -21 -21 -21 -21
-17 -17 -17 -17 -18 -18 -18 -18 -18 -18 -18 -18 -18 -18 -18 -18 -18 -19 -19 -19 -19 -19 -19 -19 -20 -20 -20 -20 -20 -20 -20 -20 -21 -21 -21 -21 -21 -21 -21 -21 -21 -21
-17 -17 -17 -18 -18 -18 -18 -18 -18 -18 -18 -18 -18 -18 -18 -19 -19 -19 -19 -19 -19 -19 -20 -20 -20 -20 -20 -20 -20 -21 -21 -21 -21 -21 -21 -21 -21 -21 -21 -21 -21 -21
-17 -17 -18 -18 -18 -18 -18 -18 -18 -18 -18 -18 -18 -18 -19 -19 -19 -19 -19 -19 -19 -20 -20 -20 -20 -20 -20 -21 -21 -21 -21 -21 -21 -21 -21 -22 -22 -22 -22 -22 -22 -22
-17 -18 -18 -18 -18 -18 -18 -18 -18 -18 -18 -18 -18 -19 -19 -19 -19 -19 -19 -20 -20 -20 -20 -20 -20 -21 -21 -21 -21 -21 -21 -21 -21 -22 -22 -22 -22 -22 -22 -22 -22 -22
Height
5814 5814 5813 5813 5813 5813 5813 5812 5811 5811 5810 5809 5808 5807 5806 5805 5804 5802 5801 5800 5798 5797 5796 5794 5793 5791 5790 5788 5786 5784 5782 5780 5778 5776 5774 5772 5770 5768 5766 5764 5762 5761
5811 5811 5811 5810 5810 5810 5810 5809 5808 5807 5807 5806 5805 5804 5803 5801 5800 5799 5798 5796 5795 5793 5792 5790 5789 5787 5786 5784 5782 5780 5778 5776 5774 5772 5770 5768 5766 5764 5762 5760 5758 5756
5809 5808 5808 5808 5808 5807 5807 5806 5805 5804 5804 5803 5801 5800 5799 5798 5796 5795 5794 5792 5791 5790 5788 5787 5785 5783 5782 5780 5778 5776 5774 5772 5770 5767 5765 5763 5761 5759 5757 5755 5753 5751
5807 5806 5806 5805 5805 5805 5804 5803 5802 5801 5800 5799 5797 5796 5795 5794 5793 5791 5790 5789 5787 5786 5784 5783 5781 5779 5778 5776 5774 5771 5769 5767 5765 5763 5761 5759 5757 5754 5752 5750 5748 5746
5804 5804 5803 5803 5802 5802 5801 5800 5799 5797 5796 5795 5794 5793 5791 5790 5789 5788 5786 5785 5784 5782 5781 5779 5777 5775 5774 5771 5769 5767 5765 5763 5760 5758 5756 5754 5752 5750 5747 5745 5743 5741
5801 5801 5800 5800 5799 5798 5797 5796 5795 5793 5792 5791 5790 5789 5788 5786 5785 5784 5783 5782 5780 5778 5777 5775 5773 5771 5769 5767 5765 5762 5760 5758 5756 5753 5751 5749 5747 5745 5742 5740 5738 5736
5799 5798 5797 5796 5795 5795 5793 5792 5791 5790 5789 5787 5786 5785 5784 5783 5782 5781 5779 5778 5776 5775 5773 5771 5769 5767 5765 5763 5760 5758 5755 5753 5751 5748 5746 5744 5742 5739 5737 5735 5732 5730
5796 5795 5794 5793 5792 5791 5790 5789 5787 5786 5785 5784 5783 5782 5781 5779 5778 5777 5776 5774 5772 5771 5769 5767 5765 5763 5761 5758 5756 5753 5751 5748 5746 5743 5741 5738 5736 5734 5732 5729 5727 5725
5792 5791 5791 5790 5789 5787 5786 5785 5784 5783 5782 5780 5779 5778 5777 5776 5775 5773 5772 5770 5768 5767 5765 5763 5761 5759 5756 5754 5751 5749 5746 5744 5741 5738 5736 5733 5731 5728 5726 5724 5721 5719
5789 5788 5787 5786 5785 5784 5783 5782 5780 5779 5778 5777 5776 5775 5774 5772 5771 5769 5768 5766 5764 5763 5761 5759 5757 5754 5752 5749 5747 5744 5742 5739 5736 5734 5731 5728 5726 5723 5721 5718 5716 5713
5786 5785 5784 5783 5782 5781 5779 5778 5777 5776 5775 5774 5773 5771 5770 5768 5767 5765 5764 5762 5760 5758 5756 5754 5752 5750 5748 5745 5742 5740 5737 5734 5732 5729 5726 5724 5721 5718 5715 5713 5710 5707
5782 5781 5780 5779 5778 5777 5776 5775 5774 5772 5771 5770 5769 5767 5766 5764 5763 5761 5760 5758 5756 5754 5752 5750 5748 5746 5743 5741 5738 5735 5732 5730 5727 5724 5722 5719 5716 5713 5710 5707 5704 5701
5779 5778 5777 5776 5775 5774 5773 5771 5770 5769 5768 5766 5765 5764 5762 5761 5759 5757 5756 5754 5752 5750 5748 5746 5744 5741 5739 5736 5733 5731 5728 5725 5723 5720 5717 5714 5711 5708 5705 5702 5699 5696
5775 5774 5773 5772 5771 5770 5769 5767 5766 5765 5764 5763 5761 5760 5758 5757 5755 5754 5752 5750 5748 5746 5744 5742 5739 5737 5734 5731 5729 5726 5723 5721 5718 5715 5712 5709 5706 5703 5700 5696 5693 5690
5772 5771 5770 5769 5767 5766 5765 5764 5762 5761 5760 5759 5757 5756 5754 5753 5751 5750 5748 5746 5744 5742 5739 5737 5735 5733 5730 5727 5725 5722 5719 5716 5714 5711 5708 5704 5701 5698 5695 5691 5688 5685
5768 5767 5766 5765 5764 5762 5761 5760 5759 5757 5756 5755 5753 5752 5751 5749 5748 5746 5744 5742 5740 5738 5735 5733 5731 5728 5726 5723 5721 5718 5715 5712 5709 5706 5703 5700 5697 5693 5690 5686 5683 5679
5764 5763 5762 5761 5760 5759 5758 5756 5755 5754 5752 5751 5750 5748 5747 5745 5744 5742 5740 5738 5736 5733 5731 5729 5727 5724 5722 5719 5716 5714 5711 5708 5705 5702 5699 5695 5692 5689 5685 5681 5678 5674
5760 5759 5758 5757 5756 5755 5754 5753 5751 5750 5749 5748 5746 5745 5743 5741 5740 5738 5736 5733 5731 5729 5727 5725 5723 5720 5718 5715 5712 5709 5706 5703 5700 5697 5694 5691 5688 5684 5680 5676 5673 5669
5757 5756 5755 5753 5752 5751 5750 5749 5748 5746 5745 5744 5743 5741 5740 5738 5736 5734 5731 5729 5727 5725 5723 5721 5719 5716 5713 5710 5708 5705 5702 5699 5696 5693 5689 5686 5683 5680 5676 5672 5668 5664
5753 5752 5751 5750 5748 5747 5746 5745 5744 5743 5742 5740 5739 5737 5736 5734 5732 5730 5727 5725 5724 5721 5719 5717 5714 5712 5709 5706 5703 5701 5697 5694 5691 5688 5685 5682 5678 5675 5671 5667 5663 5659
5749 5748 5747 5746 5745 5744 5742 5742 5741 5739 5738 5737 5735 5734 5732 5730 5728 5726 5724 5722 5719 5717 5715 5712 5710 5708 5705 5702 5699 5696 5693 5690 5687 5684 5680 5677 5673 5670 5666 5662 5658 5654
5745 5744 5743 5742 5741 5740 5739 5738 5737 5736 5735 5733 5732 5730 5728 5726 5724 5722 5720 5718 5715 5713 5711 5708 5706 5703 5701 5698 5695 5692 5689 5686 5683 5679 5676 5672 5669 5665 5662 5657 5653 5649
5741 5740 5739 5738 5737 5736 5735 5734 5733 5732 5731 5729 5728 5726 5724 5722 5720 5718 5716 5714 5712 5709 5707 5704 5702 5700 5697 5694 5691 5688 5685 5682 5679 5675 5672 5668 5664 5661 5658 5654 5649 5645
5737 5736 5735 5734 5733 5733 5732 5731 5730 5728 5727 5726 5724 5722 5720 5718 5716 5714 5712 5710 5708 5706 5703 5701 5699 5696 5694 5691 5688 5685 5682 5678 5675 5672 5668 5665 5661 5657 5653 5650 5646 5641
5733 5732 5731 5731 5730 5729 5728 5727 5726 5725 5723 5722 5720 5718 5716 5715 5713 5711 5709 5707 5705 5703 5700 5698 5696 5693 5690 5687 5684 5682 5679 5675 5672 5668 5665 5661 5658 5654 5650 5646 5642 5637
5729 5728 5728 5727 5726 5725 5725 5724 5722 5721 5720 5718 5716 5715 5713 5711 5709 5707 5706 5704 5702 5700 5698 5695 5693 5690 5687 5684 5681 5679 5676 5672 5669 5665 5662 5658 5655 5651 5647 5643 5638 5634
Wind_Speed
21 22 23 24 24 24 24 23 23 24 26 28 29 31 32 33 33 34 34 35 36 36 37 38 39 39 40 40 41 41 41 40 40 39 39 39 39 39 39 39 39 39
22 23 24 24 24 24 23 23 24 26 28 30 31 32 33 34 35 35 36 36 37 37 38 39 40 40 41 42 42 43 42 41 41 40 40 40 40 41 40 40 40 40
23 24 24 25 25 25 25 27 28 30 31 32 33 34 34 35 36 36 37 37 37 38 39 40 41 41 42 43 44 43 43 42 41 41 41 41 41 41 41 41 41 41
25 26 26 27 27 28 30 31 33 34 34 34 35 35 36 36 37 37 37 38 38 39 40 40 41 42 43 44 44 44 43 43 42 42 42 42 42 42 42 41 42 42
26 27 28 29 31 32 33 34 35 36 36 36 36 36 37 37 38 38 38 38 39 39 40 41 42 43 44 44 44 44 44 43 43 43 43 43 42 42 43 43 43 43
26 28 29 30 32 33 34 35 35 36 36 36 36 36 37 37 38 38 38 38 39 40 41 41 42 44 44 44 44 44 44 44 44 44 43 44 44 44 44 44 44 44
26 28 29 30 32 32 33 34 34 35 35 35 36 36 37 37 37 38 38 39 39 40 41 42 43 43 43 44 44 44 44 44 44 44 44 45 45 45 45 45 45 46
28 29 30 31 32 32 33 33 33 33 33 34 35 35 36 36 37 38 38 39 40 41 41 42 42 42 43 43 43 44 44 44 44 45 45 46 46 46 46 46 47 47
29 30 30 31 31 32 32 31 31 32 33 33 34 35 36 37 37 38 38 39 40 40 41 41 41 41 42 42 43 43 44 44 45 45 46 46 47 47 47 48 48 48
29 29 30 30 31 31 31 31 31 31 32 33 34 35 36 37 37 37 38 38 39 39 40 40 40 41 41 42 42 43 44 44 45 46 46 47 47 48 48 48 48 49
29 29 30 30 30 30 30 31 31 32 32 33 34 35 35 36 36 37 37 37 38 38 39 39 40 40 41 42 42 43 44 45 45 46 47 47 48 48 48 48 49 50
30 30 30 30 30 30 30 31 31 32 32 33 34 34 35 35 36 36 36 37 37 37 38 38 39 40 41 41 42 43 44 45 46 46 47 47 47 48 48 49 50 50
30 30 30 31 31 31 31 31 31 31 32 32 32 33 33 34 34 35 35 36 36 37 37 38 39 40 41 42 42 43 44 45 46 46 47 47 47 48 49 50 50 51
30 31 31 32 32 32 32 32 32 31 31 31 31 32 32 33 33 34 34 35 36 36 37 38 39 40 41 42 43 44 45 45 45 46 46 47 48 49 50 50 50 50
31 32 32 33 33 34 33 33 32 31 31 31 31 31 31 32 32 33 34 35 35 37 38 38 39 40 41 42 43 44 44 44 44 45 46 48 48 49 49 49 50 50
32 32 33 33 33 33 33 32 32 31 30 30 30 30 31 31 32 33 34 35 36 37 37 38 39 40 42 42 43 43 43 43 44 46 47 47 47 48 48 48 49 49
32 32 32 32 32 32 32 31 31 30 29 29 29 30 30 31 32 33 34 35 36 37 38 39 40 41 42 42 42 42 43 44 45 46 46 46 46 46 47 47 48 48
31 31 31 31 31 31 31 30 29 28 28 28 29 29 30 31 33 34 35 36 37 37 38 39 40 41 41 41 41 42 43 44 45 46 46 46 46 46 46 47 47 47
31 31 30 31 31 31 30 29 28 27 28 28 29 30 31 32 33 34 35 36 37 38 39 40 40 40 40 41 41 42 44 45 45 45 45 45 45 45 46 46 46 45
31 30 30 31 30 29 28 27 27 27 27 28 29 30 32 33 34 35 36 36 37 38 39 40 40 40 40 41 42 43 44 44 44 44 45 45 45 45 46 45 44 44
30 30 30 30 28 27 27 26 26 27 28 29 30 31 33 34 34 35 36 37 38 39 39 39 39 39 40 41 42 43 44 43 44 44 44 45 45 45 45 44 43 43
30 30 29 28 27 26 26 26 26 27 28 29 31 32 33 34 34 35 36 37 38 38 38 38 38 39 40 42 42 43 43 43 43 43 44 44 44 44 43 42 43 43
30 30 29 27 26 26 26 26 27 28 29 30 32 33 33 34 35 36 36 37 37 37 37 38 38 39 40 41 41 41 41 41 42 42 43 43 43 42 41 41 42 44
30 29 28 27 26 26 26 26 27 28 30 31 32 33 33 34 35 36 36 37 37 37 37 37 38 39 40 39 39 39 39 40 41 42 42 42 40 40 40 41 42 43
30 28 27 26 26 26 26 27 28 29 31 32 32 33 34 34 35 36 36 36 36 36 36 37 38 38 38 37 37 37 38 39 40 41 40 39 38 38 40 41 42 42
29 27 26 26 26 26 27 27 29 30 31 32 33 33 34 34 35 35 35 35 35 35 36 37 37 36 36 35 35 36 37 38 39 39 38 37 37 37 39 41 41 42
Wind_Direction
278 278 279 280 282 283 284 287 291 294 297 298 297 296 295 295 295 295 295 296 296 297 298 300 301 303 305 306 308 308 308 308 307 306 305 304 303 302 300 299 298 297
282 281 281 282 281 281 282 285 290 294 297 298 296 294 293 292 293 293 293 294 295 296 298 299 301 302 304 305 306 307 307 307 306 305 304 303 302 301 300 300 299 298
284 283 281 281 281 281 284 287 290 293 295 295 294 292 291 291 291 291 292 293 294 296 297 298 300 301 303 304 305 305 306 305 305 304 303 302 302 301 300 300 300 299
281 281 281 281 282 283 286 288 291 293 294 293 291 291 290 290 290 291 292 293 294 295 296 297 298 299 301 302 303 304 304 304 304 303 303 303 302 302 302 302 301 300
280 281 282 283 284 286 288 290 292 293 293 292 290 290 289 289 290 290 291 292 292 293 294 295 296 298 299 301 302 303 303 304 304 304 304 304 304 304 304 303 303 301
283 284 285 285 286 287 288 290 292 292 291 290 289 288 288 288 288 288 289 290 291 292 293 294 296 297 299 300 301 302 303 304 304 305 305 306 306 306 305 304 303 302
284 284 285 286 287 288 289 290 290 289 289 288 287 286 286 286 287 287 288 289 289 291 292 294 296 297 299 300 301 302 303 304 305 306 307 307 307 306 305 304 303 302
284 284 285 286 287 288 288 288 288 287 286 285 285 285 285 285 286 286 287 288 289 291 292 294 296 297 299 300 301 303 304 305 306 307 307 307 306 305 305 304 303 302
285 286 287 288 288 288 288 288 287 285 284 283 283 283 284 284 285 286 287 288 289 291 293 295 296 298 299 301 302 303 305 306 306 307 307 306 306 305 304 303 302 302
286 287 288 289 289 289 289 288 287 285 284 283 283 283 283 284 285 287 288 290 291 293 295 296 297 299 300 302 303 305 306 307 307 307 306 306 305 304 304 303 303 302
287 288 289 289 289 288 288 288 287 285 284 283 283 283 284 286 287 289 290 292 293 295 296 297 299 300 302 303 305 306 306 307 307 306 306 305 304 304 304 304 304 303
288 288 288 287 286 286 286 286 286 285 284 284 284 284 285 287 289 290 292 293 294 296 297 299 301 302 304 305 306 306 306 306 306 305 305 305 305 305 305 305 304 303
287 286 285 284 283 284 285 286 286 286 285 285 285 285 286 288 290 291 293 294 296 298 300 301 303 304 305 306 306 306 306 306 305 305 306 306 306 306 306 305 304 303
284 283 283 282 282 283 285 287 287 287 286 286 286 287 288 289 290 292 294 296 298 300 301 303 305 306 307 307 307 306 306 306 306 307 307 307 307 306 305 305 304 304
281 281 281 281 282 284 286 287 288 287 287 287 288 288 289 290 292 294 297 299 300 301 303 305 306 307 307 307 306 306 306 306 307 307 307 307 307 306 306 306 305 305
281 281 281 281 282 284 286 287 287 288 288 288 288 289 290 293 295 298 299 301 302 303 305 306 307 307 306 306 306 306 306 307 307 308 308 308 307 307 307 307 306 306
282 281 281 281 283 285 286 287 287 288 288 288 289 291 294 296 298 300 301 302 304 306 307 307 306 306 306 306 306 307 308 308 308 309 308 308 308 308 308 307 307 307
282 282 282 283 284 286 286 286 287 287 288 289 292 294 297 299 300 302 303 305 306 307 307 306 306 306 306 307 308 308 309 309 309 309 309 308 308 308 309 309 309 309
282 282 283 284 286 286 286 286 286 287 289 292 294 297 299 301 302 304 305 306 306 306 306 306 306 307 308 308 309 310 310 310 310 309 309 309 309 310 311 311 311 312
280 282 284 285 285 285 285 285 286 288 291 294 297 299 301 302 304 304 305 305 305 306 306 307 308 309 309 310 311 311 311 310 310 310 310 311 312 312 313 314 314 314
280 282 284 284 284 284 285 286 288 291 294 297 299 301 302 303 304 304 305 305 306 307 308 308 309 310 311 312 312 311 311 310 311 311 312 313 314 315 316 316 316 317
280 281 283 284 283 284 285 287 290 293 296 299 301 302 302 303 304 304 306 307 308 308 309 310 311 312 312 312 311 311 311 311 312 313 314 316 317 317 318 319 320 321
279 280 282 283 283 284 286 289 292 295 298 300 301 301 302 303 304 305 307 308 308 309 310 311 313 313 312 312 311 311 312 313 314 315 317 318 319 319 320 321 323 324
278 279 281 282 283 284 287 290 293 296 298 300 300 301 302 303 305 306 307 308 308 310 312 313 313 312 311 311 311 312 313 314 316 318 319 320 321 321 323 324 326 327
278 279 281 281 282 285 288 291 294 297 298 300 300 301 302 304 306 306 307 308 309 311 312 312 312 311 310 311 312 313 314 316 318 320 321 322 322 324 325 327 328 329
278 279 280 281 282 285 288 292 295 297 298 299 300 301 303 304 305 305 307 308 310 311 311 311 310 310 310 311 313 314 316 318 320 321 322 323 324 326 328 329 331 332